Regional Weather Roundup
Issued by NWS

Home | Current Version | Previous Version | Graphics & Text | Print | Product List | Glossary On
Versions: 1 2 3 4 5 6 7 8 9 10 11 12 13 14 15 16 17 18 19 20 21 22 23 24 25 26 27 28 29 30 31 32 33 34 35 36 37 38 39 40 41 42 43 44 45 46 47 48 49 50
932
ASUS43 KLMK 252102
RWRKY
KENTUCKY REGIONAL WEATHER ROUNDUP
NATIONAL WEATHER SERVICE LOUISVILLE KY
500 PM EDT SUN SEP 25 2016

NOTE "FAIR" INDICATES FEW OR NO CLOUDS BELOW 12,000 FEET
WITH NO SIGNIFICANT WEATHER AND/OR OBSTRUCTIONS TO VISIBILITY.

KYZ001>023-026-027-061>063-070>075-252200-
WESTERN AND SOUTH CENTRAL KENTUCKY

CITY           SKY/WX    TMP DP  RH WIND       PRES   REMARKS
PADUCAH        MOSUNNY   91  64  40 CALM      29.99F HX  92
HENDERSON      MOSUNNY   93  63  36 SW5       29.99F HX  94
OWENSBORO      NOT AVBL
HOPKINSVILLE   SUNNY     90  64  43 N9        30.01F HX  91
BOWLING GREEN  SUNNY     91  63  39 MISG      30.02F HX  92
GLASGOW        NOT AVBL
$$

KYZ024-025-028>034-038-045-046-053-252200-
NORTH CENTRAL KENTUCKY

CITY           SKY/WX    TMP DP  RH WIND       PRES   REMARKS
LOUISVILLE/SDF MOSUNNY   90  60  36 CALM      30.01F
LOUISVILLE/LOU SUNNY     89  61  38 CALM      30.02F
FORT KNOX      NOT AVBL
$$

KYZ035>037-039>044-047>052-055>060-089>105-252200-
NORTHEAST KENTUCKY

CITY           SKY/WX    TMP DP  RH WIND       PRES   REMARKS
LEXINGTON      MOSUNNY   86  61  42 CALM      30.05F
COVINGTON      MOSUNNY   86  64  47 VRB3      30.05F
FRANKFORT      MOSUNNY   89  64  43 N7        30.03F HX  90
$$

KYZ054-064>069-076>088-106>120-252200-
SOUTHEAST KENTUCKY

CITY           SKY/WX    TMP DP  RH WIND       PRES   REMARKS
JACKSON        SUNNY     87  63  44 VRB3      30.08F
LONDON         SUNNY     88  61  40 NW6       30.06F
SOMERSET       SUNNY     88  59  37 CALM      30.05F
MIDDLESBORO    PTSUNNY   87  65  47 N5        30.06F
MONTICELLO     PTCLDY    89  63  41 W9        30.05F HX  90
$$





USA.gov is the U.S. government's official web portal to all federal, state and local government web resources and services.